This demonstration page uses our WeatherBlox Daily Observations layout. Learn more.

Left ArrowRight Arrow

34.02893, -84.19858

Hourly Observations for February 25, 2021

Temp ( °F °C ) Dew Point ( °F °C ) Humidity (%) Winds ( mph kmh ) Pressure ( in mb ) Visibility ( mi km ) Precip ( " mm )
12:53 am 00:53 Clear 46 7.8 34 1.1 63 63 Calm 30.09 1019 10 16 0.00 0.00
1:53 am 01:53 Clear 45 7.2 36 2.2 71 71 SW 5 7 30.06 1018 10 16 0.00 0.00
2:53 am 02:53 Clear 46 7.8 34 1.1 63 63 Calm 30.07 1018 10 16 0.00 0.00
3:53 am 03:53 Partly Cloudy 46 7.8 36 2.2 68 68 SW 3 6 30.07 1018 10 16 0.00 0.00
4:53 am 04:53 Partly Cloudy 48 8.9 36 2.2 63 63 SSW 7 11 30.07 1018 10 16 0.00 0.00
5:53 am 05:53 Mostly Cloudy 51 10.6 35 1.7 54 54 S 3 6 30.08 1019 10 16 0.00 0.00
6:53 am 06:53 Clear 48 8.9 36 2.2 63 63 WNW 5 7 30.12 1020 10 16 0.00 0.00
7:53 am 07:53 Sunny 49 9.4 38 3.3 66 66 WSW 5 7 30.14 1021 10 16 0.00 0.00
8:53 am 08:53 Sunny 56 13.3 38 3.3 51 51 VRB 5 7 30.16 1021 10 16 0.00 0.00
9:53 am 09:53 Sunny 61 16.1 38 3.3 43 43 NW 9 15 30.19 1022 10 16 0.00 0.00
10:53 am 10:53 Sunny 65 18.3 41 5 42 42 WNW 10 17 30.19 1022 10 16 0.00 0.00
11:53 am 11:53 Sunny 67 19.4 43 6.1 42 42 NW 10 17 30.19 1022 10 16 0.00 0.00
12:53 pm 12:53 Sunny 69 20.6 41 5 36 36 NW 9 15 30.16 1021 10 16 0.00 0.00
1:53 pm 13:53 Sunny 70 21.1 39 3.9 32 32 WNW 10 17 30.14 1021 10 16 0.00 0.00
2:53 pm 14:53 Sunny 72 22.2 32 0 23 23 NNW 7 11 30.11 1020 10 16 0.00 0.00
3:53 pm 15:53 Sunny 72 22.2 31 -0.6 22 22 NNW 8 13 30.11 1020 10 16 0.00 0.00
4:53 pm 16:53 Sunny 71 21.7 34 1.1 26 26 NW 8 13 30.10 1019 10 16 0.00 0.00
5:53 pm 17:53 Sunny 69 20.6 37 2.8 31 31 NW 8 13 30.11 1020 10 16 0.00 0.00
6:53 pm 18:53 Clear 65 18.3 39 3.9 39 39 NNW 5 7 30.15 1021 10 16 0.00 0.00
7:53 pm 19:53 Clear 60 15.6 40 4.4 47 47 N 5 7 30.16 1021 10 16 0.00 0.00
8:53 pm 20:53 Clear 57 13.9 36 2.2 45 45 N 5 7 30.16 1021 10 16 0.00 0.00
9:53 pm 21:53 Clear 54 12.2 37 2.8 53 53 Calm 30.15 1021 10 16 0.00 0.00
10:53 pm 22:53 Clear 48 8.9 37 2.8 66 66 NNE 3 6 30.15 1021 10 16 0.00 0.00
11:53 pm 23:53 Clear 50 10 36 2.2 59 59 Calm 30.13 1020 10 16 0.00 0.00

Powered by AerisWeather